AirNav   Everest Fuels
 
 1044 users online  

PA48 Holy Spirit A Geisinger Affiliate Heliport
Harrisburg, Pennsylvania, USA

GOING TO HARRISBURG?


FAA INFORMATION EFFECTIVE 16 JULY 2020

Location

FAA Identifier: PA48
Lat/Long: 40-15-08.1300N 076-55-14.6500W
40-15.135500N 076-55.244167W
40.2522583,-76.9207361
(estimated)
Elevation: 486 ft. / 148 m (estimated)
From city: 2 miles E of HARRISBURG, PA
Time zone: UTC -4 (UTC -5 during Standard Time)
Zip code: 17011

Heliport Operations

Heliport use: Private use. Permission required prior to landing
Activation date: 10/2008
Control tower: no
ARTCC: NEW YORK CENTER
FSS: WILLIAMSPORT FLIGHT SERVICE STATION
Attendance: CONTINUOUS
Wind indicator: yes
Segmented circle: no

Heliport Communications

WX ASOS at CXY (4 nm SE): PHONE 717-770-0880
WX ASOS at MDT (8 nm SE): 118.8 (717-944-1372)
WX ASOS at MUI (19 nm NE): 124.175 (717-861-2536)

Nearby radio navigation aids

VOR radial/distance  VOR name  Freq  Var
HARr124/7.4HARRISBURG VORTAC112.5010W
RAVr230/23.3RAVINE VORTAC114.6011W
LRPr294/29.9LANCASTER VOR/DME117.3009W
SEGr191/32.4SELINSGROVE VOR/DME110.4008W

 
NDB name  Hdg/Dist  Freq  Var  ID
ENOLAat field20411WMD -- -..
LATLE052/5.921911WCX -.-. -..-
BELLGROVE247/20.132810WBZJ -... --.. .---

Heliport Services

Runway Information

Helipad H1

Dimensions: 45 x 50 ft. / 14 x 15 m
Surface: concrete
Latitude: 40-15.135500N
Longitude: 076-55.244167W
Elevation: 426.0 ft.
Traffic pattern: leftleft

Helipad H2

Dimensions: 55 x 55 ft. / 17 x 17 m
Surface: ROOF/TOP
Latitude: 40-15.208333N
Longitude: 076-55.266667W
Elevation: 486.0 ft.
Traffic pattern: leftleft

Heliport Ownership and Management from official FAA records

Ownership: Privately-owned
Owner: HOLY SPIRIT - A GEISINGER AFFILIATE
503 N. 21ST STREET
CAMP HILL, PA 17011
Phone 717-763-2100
Manager: DANIEL REMBISH
503 N. 21ST STREET
CAMP HILL, PA 17011
Phone 717-763-3068

Additional Remarks

FOR CD CTC HARRISBURG APCH AT 800-932-0712.

Instrument Procedures

There are no published instrument procedures at PA48.

Some nearby airports with instrument procedures:

KCXY - Capital City Airport (4 nm SE)
KMDT - Harrisburg International Airport (8 nm SE)
N94 - Carlisle Airport (12 nm W)
58N - Reigle Field Airport (16 nm E)
N71 - Donegal Springs Airpark (19 nm SE)
KMUI - Muir Army Airfield (Fort Indiantown Gap) (19 nm NE)
 
Loc | Ops | Rwys | IFR | FBO | Links
Com | Nav | Svcs | Stats | Notes
Aerial photo
No photo
 
Sectional chart

 
Airport distance calculator
Flying to Holy Spirit A Geisinger Affiliate Heliport? Find the distance to fly.

From to PA48

Sunrise and sunset
Times for 04-Aug-2020
 Local
(UTC-4)
 Zulu
(UTC)
Morning civil twilight05:4009:40
Sunrise06:1010:10
Sunset20:1700:17
Evening civil twilight20:4700:47

Current date and time
Zulu (UTC)  05-Aug-2020 00:25:49
Local (UTC-4)  04-Aug-2020 20:25:49
 
METAR
KCXY 
4nm SE 
042356Z 23007KT 10SM CLR 27/18 A2985 RMK AO2 SLP107 T02670183 10306 20256 53022
KMDT 
8nm SE 
042356Z 23012KT 10SM FEW045 FEW120 27/19 A2985 RMK AO2 SLP104 T02670194 10300 20250 53022
KMUI 
19nm NE 
042356Z 27003KT 10SM SCT050 BKN150 BKN200 26/20 A2985 RMK AO2A SLP108 WND DATA ESTMD T02630197 10283 20226 52021 $
TAF
KMDT 
8nm SE 
042120Z 0421/0518 26012KT P6SM BKN050 FM050000 28005KT P6SM SCT050
KMUI 
19nm NE 
042310Z 0423/0601 27009KT 9999 SCT040 QNH2982INS BECMG 0502/0503 25009KT 8000 -SHRA BKN050 QNH2990INS BECMG 0514/0515 24006KT 9999 NSW FEW050 QNH2994INS TX28/0423Z TN19/0510Z LAST NO AMDS AFT 0505 NEXT 0511
NOTAMs
Click for the latest NOTAMs
NOTAMs are issued by the DoD/FAA and will open in a separate window not controlled by AirNav.

 

 
 

Would you like to see your business listed on this page?

 If your business provides an interesting product or service to pilots, flight crews, aircraft, or users of the Holy Spirit A Geisinger Affiliate Heliport, you should consider listing it here.  To start the listing process, click on the button below
 
Add a business
 

Other Pages about Holy Spirit A Geisinger Affiliate Heliport

Update a link
 
Copyright © AirNav, LLC. All rights reserved. Privacy Policy  Contact